Terminal Aerodrome Forecast
Issued by NWS Wakefield, VA

Home | Current Version | Previous Version | Text Only | Print | Product List | Glossary On
Versions: 1 2 3 4 5 6 7 8 9 10 11 12 13 14 15 16 17
000
FTUS41 KAKQ 280500
TAFECG
TAF
KECG 280540Z 2806/2906 28004KT P6SM SKC
     FM281300 33007KT P6SM SCT050
     FM282000 05007KT P6SM SCT250=

USA.gov is the U.S. government's official web portal to all federal, state and local government web resources and services.